ZHONGXING-2A

Last updated on Fri Jul 11 2025 00:02:43 GMT+0000 (Coordinated Universal Time)

1 38352U 12028A 25191.64641323 -.00000281 00000+0 00000+0 0 9991 2 38352 0.5680 89.3523 0002046 72.6950 97.7276 1.00272108 47878
UTC large
Height (km)
Speed (km/s)
/
Latitude / Longitude
Inclination (degrees)
Orbital Period (minutes)
Azimuth
Elevation
Range (km)
Doppler Factor

Next 0 passes for location: London (51.5072 / 0.1276)

Sorry there are no passes over London.